Starlink 1374

decayed
NORAD ID: 45545 Int'l Des: 2020-025 Owner: SPXS Country: US Constellation: starlink
LEOCIRCULAR
Group

About Starlink 1374

Description loading...

Altitude History

Altitude vs Time

uPlot chart will show altitude changes over time

Two-Line Element Set

1 45545U 20025Q 25053.32747775 .12637540 12492-4 36935-3 0 9998
2 45545 53.0216 323.3699 0006709 267.1070 195.7690 16.44852345267882
Epoch: Feb 22, 2025 • Age: 7149 hours

Current Status

Position data unavailable
Launch Date Apr 22, 2020
Age 5.6 years
Decay Date Feb 22, 2025
Type internet

Technical Details

Classification Payload
Mass 260.00 kg
Dry Mass 248.00 kg
Total Mass 260.00 kg
Length 0.20 m
Diameter 2.80 m
Span 9.00 m
Shape Box + pan
Manufacturer SPXS
Bus Type Starlink
Phase Status Unknown Transfer Status
Owner/State SPXS/US

Large Constellations

Loading constellations...